QPF
0.00 0.00 0.00 0.01 0.02 0.02 0.02 0.04 0.05 0.03 0.04 0.04 0.03 0.03 0.03 0.02 0.01 0.01 0.02 0.01 0.01 0.03 0.04 0.04 0.04 0.04 0.04 0.03 0.02 0.01 0.01 0.00 0.01 0.01 0.02 0.02 0.01 0.01 0.01 0.02 0.02 0.01 0.01
0.00 0.00 0.00 0.01 0.02 0.02 0.02 0.04 0.05 0.04 0.04 0.04 0.03 0.02 0.02 0.02 0.02 0.02 0.01 0.01 0.01 0.02 0.02 0.02 0.03 0.03 0.03 0.02 0.02 0.01 0.01 0.00 0.00 0.00 0.01 0.01 0.02 0.02 0.01 0.01 0.02 0.02 0.02
0.01 0.00 0.00 0.01 0.02 0.03 0.03 0.04 0.04 0.05 0.05 0.04 0.04 0.02 0.02 0.02 0.02 0.02 0.01 0.01 0.01 0.01 0.01 0.01 0.01 0.02 0.02 0.02 0.02 0.02 0.01 0.01 0.00 0.00 0.00 0.01 0.01 0.02 0.02 0.02 0.02 0.03 0.01
0.01 0.00 0.00 0.02 0.02 0.03 0.04 0.04 0.04 0.04 0.04 0.03 0.03 0.03 0.02 0.02 0.02 0.01 0.01 0.01 0.01 0.01 0.01 0.01 0.01 0.01 0.01 0.01 0.01 0.01 0.01 0.00 0.00 0.00 0.01 0.01 0.01 0.01 0.01 0.02 0.02 0.03 0.02
0.01 0.01 0.01 0.01 0.03 0.04 0.05 0.05 0.05 0.04 0.04 0.03 0.03 0.03 0.02 0.02 0.02 0.02 0.02 0.01 0.01 0.01 0.01 0.00 0.01 0.01 0.01 0.00 0.00 0.01 0.01 0.01 0.00 0.01 0.01 0.02 0.02 0.02 0.01 0.01 0.02 0.02 0.01
0.01 0.01 0.00 0.01 0.03 0.03 0.04 0.06 0.06 0.05 0.04 0.03 0.02 0.02 0.02 0.03 0.03 0.02 0.02 0.01 0.01 0.01 0.00 0.00 0.01 0.01 0.01 0.00 0.00 0.00 0.01 0.01 0.01 0.01 0.02 0.02 0.02 0.02 0.02 0.02 0.03 0.03 0.02
0.01 0.01 0.01 0.01 0.02 0.03 0.03 0.05 0.06 0.06 0.05 0.04 0.03 0.02 0.02 0.02 0.02 0.02 0.02 0.02 0.01 0.01 0.01 0.00 0.00 0.01 0.01 0.00 0.00 0.00 0.00 0.01 0.01 0.01 0.01 0.02 0.02 0.02 0.02 0.03 0.03 0.03 0.02
0.01 0.01 0.01 0.01 0.03 0.03 0.03 0.06 0.07 0.08 0.07 0.05 0.03 0.03 0.03 0.03 0.03 0.02 0.02 0.03 0.02 0.01 0.01 0.00 0.00 0.00 0.00 0.01 0.01 0.01 0.00 0.00 0.00 0.00 0.02 0.02 0.02 0.02 0.02 0.02 0.03 0.03 0.02
0.02 0.02 0.01 0.01 0.03 0.04 0.03 0.05 0.09 0.10 0.10 0.06 0.05 0.04 0.04 0.03 0.02 0.03 0.03 0.03 0.03 0.02 0.01 0.01 0.01 0.01 0.01 0.01 0.01 0.01 0.00 0.00 0.00 0.01 0.01 0.01 0.01 0.02 0.03 0.02 0.03 0.02 0.02
0.03 0.03 0.02 0.02 0.03 0.04 0.04 0.03 0.07 0.09 0.10 0.07 0.05 0.04 0.03 0.03 0.03 0.03 0.02 0.02 0.02 0.02 0.01 0.01 0.01 0.01 0.01 0.01 0.01 0.01 0.00 0.00 0.00 0.00 0.00 0.01 0.01 0.02 0.03 0.03 0.04 0.03 0.03
0.03 0.04 0.03 0.03 0.05 0.06 0.06 0.04 0.05 0.07 0.09 0.07 0.04 0.02 0.03 0.03 0.03 0.03 0.02 0.02 0.02 0.02 0.02 0.01 0.01 0.01 0.01 0.01 0.01 0.00 0.00 0.00 0.00 0.00 0.01 0.01 0.01 0.01 0.02 0.03 0.03 0.05 0.04
0.03 0.04 0.04 0.03 0.04 0.07 0.08 0.08 0.07 0.08 0.09 0.07 0.04 0.04 0.04 0.05 0.04 0.03 0.03 0.03 0.03 0.03 0.03 0.02 0.01 0.01 0.00 0.00 0.00 0.00 0.00 0.00 0.00 0.00 0.01 0.01 0.01 0.02 0.02 0.02 0.03 0.05 0.06
0.03 0.03 0.04 0.04 0.05 0.06 0.09 0.11 0.10 0.10 0.09 0.07 0.07 0.06 0.06 0.07 0.06 0.04 0.04 0.03 0.03 0.03 0.03 0.03 0.02 0.01 0.00 0.00 0.00 0.00 0.00 0.00 0.00 0.00 0.01 0.01 0.02 0.02 0.02 0.02 0.02 0.04 0.07
0.05 0.04 0.06 0.07 0.06 0.06 0.08 0.10 0.12 0.10 0.10 0.08 0.08 0.06 0.06 0.07 0.05 0.04 0.03 0.03 0.03 0.03 0.03 0.04 0.03 0.02 0.02 0.02 0.02 0.01 0.01 0.01 0.00 0.00 0.00 0.00 0.01 0.01 0.02 0.02 0.02 0.03 0.07
0.07 0.05 0.06 0.07 0.08 0.08 0.09 0.10 0.11 0.11 0.10 0.10 0.09 0.08 0.08 0.08 0.06 0.05 0.03 0.02 0.03 0.03 0.02 0.03 0.03 0.04 0.04 0.04 0.03 0.03 0.01 0.01 0.01 0.00 0.00 0.00 0.00 0.01 0.01 0.02 0.03 0.03 0.07
0.05 0.03 0.03 0.06 0.07 0.08 0.11 0.13 0.14 0.13 0.11 0.10 0.10 0.10 0.09 0.09 0.09 0.06 0.04 0.03 0.03 0.02 0.02 0.03 0.03 0.04 0.03 0.04 0.04 0.04 0.03 0.02 0.01 0.00 0.00 0.00 0.00 0.00 0.01 0.03 0.03 0.03 0.06
0.02 0.02 0.02 0.04 0.07 0.08 0.08 0.12 0.15 0.16 0.14 0.11 0.11 0.13 0.11 0.09 0.10 0.09 0.06 0.04 0.03 0.02 0.03 0.03 0.02 0.03 0.03 0.02 0.02 0.02 0.03 0.03 0.02 0.01 0.00 0.00 0.00 0.00 0.00 0.02 0.02 0.03 0.05
0.01 0.01 0.02 0.02 0.04 0.06 0.07 0.08 0.10 0.13 0.15 0.13 0.12 0.11 0.11 0.09 0.09 0.09 0.08 0.05 0.03 0.03 0.04 0.04 0.02 0.02 0.02 0.03 0.03 0.03 0.02 0.03 0.03 0.02 0.01 0.00 0.00 0.00 0.00 0.01 0.02 0.03 0.05
0.01 0.01 0.01 0.02 0.02 0.04 0.05 0.06 0.06 0.07 0.09 0.10 0.10 0.09 0.10 0.09 0.08 0.08 0.09 0.06 0.04 0.04 0.05 0.05 0.03 0.03 0.02 0.03 0.04 0.04 0.04 0.04 0.04 0.03 0.02 0.01 0.00 0.01 0.01 0.01 0.01 0.02 0.02
0.02 0.02 0.02 0.02 0.02 0.02 0.03 0.04 0.04 0.04 0.05 0.05 0.05 0.05 0.07 0.09 0.09 0.09 0.11 0.09 0.05 0.04 0.05 0.05 0.04 0.04 0.06 0.07 0.07 0.07 0.08 0.07 0.05 0.03 0.02 0.01 0.01 0.01 0.01 0.01 0.01 0.01 0.01
0.02 0.02 0.02 0.02 0.02 0.02 0.02 0.03 0.03 0.03 0.03 0.03 0.03 0.03 0.03 0.06 0.08 0.08 0.07 0.08 0.07 0.05 0.05 0.05 0.06 0.06 0.07 0.09 0.08 0.07 0.08 0.08 0.07 0.05 0.03 0.03 0.02 0.01 0.01 0.01 0.01 0.01 0.01
0.02 0.02 0.02 0.02 0.02 0.03 0.03 0.02 0.03 0.03 0.02 0.02 0.02 0.02 0.03 0.04 0.05 0.05 0.05 0.06 0.07 0.05 0.05 0.05 0.06 0.07 0.09 0.11 0.10 0.08 0.06 0.06 0.06 0.05 0.05 0.05 0.04 0.03 0.03 0.02 0.02 0.01 0.02
0.02 0.03 0.02 0.02 0.02 0.03 0.03 0.03 0.02 0.03 0.02 0.02 0.01 0.01 0.02 0.03 0.03 0.04 0.04 0.04 0.04 0.05 0.05 0.04 0.05 0.06 0.09 0.11 0.10 0.09 0.07 0.05 0.06 0.06 0.05 0.05 0.05 0.04 0.04 0.03 0.03 0.03 0.03
0.01 0.02 0.03 0.03 0.03 0.03 0.04 0.04 0.03 0.02 0.02 0.02 0.01 0.01 0.01 0.02 0.02 0.03 0.03 0.02 0.02 0.03 0.04 0.05 0.06 0.07 0.09 0.09 0.09 0.08 0.06 0.05 0.04 0.04 0.05 0.05 0.04 0.04 0.04 0.03 0.03 0.03 0.03
0.01 0.02 0.02 0.03 0.03 0.03 0.02 0.02 0.03 0.02 0.01 0.01 0.01 0.01 0.02 0.02 0.01 0.02 0.02 0.02 0.02 0.02 0.03 0.03 0.05 0.05 0.08 0.09 0.08 0.07 0.06 0.05 0.03 0.03 0.04 0.04 0.04 0.04 0.02 0.02 0.02 0.03 0.03
0.01 0.01 0.02 0.02 0.03 0.03 0.03 0.02 0.02 0.02 0.02 0.01 0.01 0.01 0.01 0.02 0.01 0.01 0.01 0.02 0.03 0.03 0.02 0.02 0.03 0.03 0.06 0.08 0.06 0.06 0.06 0.05 0.04 0.04 0.04 0.03 0.04 0.03 0.02 0.02 0.01 0.01 0.01
MSLP
1014.12 1013.99 1013.98 1014.13 1014.42 1014.80 1015.20 1015.56 1015.81 1015.95 1015.99 1015.97 1015.94 1015.95 1016.02 1016.14 1016.29 1016.45 1016.59 1016.67 1016.70 1016.70 1016.70 1016.71 1016.75 1016.82 1016.93 1017.03 1017.11 1017.16 1017.17 1017.15 1017.11 1017.09 1017.09 1017.12 1017.17 1017.25 1017.31 1017.36 1017.38 1017.38 1017.36
1013.83 1013.80 1013.90 1014.15 1014.51 1014.94 1015.35 1015.70 1015.94 1016.06 1016.10 1016.09 1016.10 1016.15 1016.27 1016.43 1016.62 1016.79 1016.92 1016.99 1017.01 1017.00 1016.98 1016.99 1017.04 1017.12 1017.22 1017.32 1017.39 1017.41 1017.40 1017.35 1017.30 1017.26 1017.26 1017.30 1017.37 1017.45 1017.53 1017.59 1017.61 1017.60 1017.58
1013.62 1013.69 1013.87 1014.19 1014.60 1015.05 1015.48 1015.81 1016.04 1016.16 1016.20 1016.23 1016.28 1016.38 1016.54 1016.74 1016.95 1017.12 1017.24 1017.29 1017.28 1017.25 1017.22 1017.22 1017.27 1017.34 1017.44 1017.52 1017.57 1017.57 1017.53 1017.47 1017.41 1017.38 1017.39 1017.44 1017.53 1017.64 1017.73 1017.80 1017.83 1017.83 1017.81
1013.55 1013.67 1013.91 1014.28 1014.72 1015.17 1015.59 1015.91 1016.12 1016.24 1016.31 1016.37 1016.46 1016.60 1016.81 1017.03 1017.25 1017.42 1017.52 1017.55 1017.52 1017.48 1017.43 1017.43 1017.46 1017.53 1017.61 1017.68 1017.70 1017.68 1017.62 1017.55 1017.49 1017.47 1017.50 1017.58 1017.69 1017.82 1017.93 1018.01 1018.06 1018.07 1018.07
1013.60 1013.76 1014.04 1014.42 1014.86 1015.31 1015.70 1016.00 1016.21 1016.33 1016.41 1016.50 1016.63 1016.82 1017.05 1017.30 1017.52 1017.68 1017.77 1017.79 1017.75 1017.70 1017.66 1017.65 1017.69 1017.75 1017.80 1017.84 1017.84 1017.79 1017.72 1017.64 1017.59 1017.58 1017.64 1017.74 1017.87 1018.02 1018.14 1018.24 1018.31 1018.35 1018.37
1013.76 1013.93 1014.22 1014.60 1015.04 1015.46 1015.83 1016.11 1016.30 1016.43 1016.53 1016.64 1016.80 1017.02 1017.27 1017.52 1017.74 1017.91 1017.99 1018.01 1017.99 1017.95 1017.93 1017.94 1017.97 1018.02 1018.06 1018.06 1018.03 1017.96 1017.86 1017.78 1017.73 1017.74 1017.81 1017.94 1018.09 1018.25 1018.39 1018.50 1018.59 1018.65 1018.70
1013.97 1014.15 1014.44 1014.82 1015.23 1015.63 1015.98 1016.24 1016.42 1016.55 1016.67 1016.80 1016.98 1017.20 1017.46 1017.72 1017.94 1018.11 1018.20 1018.24 1018.25 1018.24 1018.25 1018.28 1018.32 1018.37 1018.38 1018.35 1018.28 1018.18 1018.07 1017.97 1017.93 1017.96 1018.05 1018.19 1018.36 1018.53 1018.68 1018.80 1018.90 1018.99 1019.07
1014.18 1014.37 1014.66 1015.03 1015.43 1015.81 1016.14 1016.39 1016.57 1016.71 1016.83 1016.98 1017.17 1017.40 1017.66 1017.91 1018.12 1018.29 1018.40 1018.47 1018.52 1018.56 1018.60 1018.66 1018.71 1018.75 1018.74 1018.68 1018.57 1018.44 1018.31 1018.22 1018.18 1018.23 1018.34 1018.50 1018.68 1018.86 1019.01 1019.14 1019.25 1019.35 1019.46
1014.35 1014.56 1014.85 1015.22 1015.61 1015.99 1016.31 1016.56 1016.74 1016.89 1017.03 1017.19 1017.38 1017.61 1017.85 1018.09 1018.30 1018.47 1018.60 1018.69 1018.77 1018.85 1018.93 1019.01 1019.07 1019.09 1019.06 1018.98 1018.84 1018.69 1018.55 1018.47 1018.45 1018.52 1018.66 1018.84 1019.03 1019.22 1019.37 1019.50 1019.61 1019.72 1019.85
1014.46 1014.69 1015.00 1015.37 1015.77 1016.14 1016.46 1016.71 1016.91 1017.07 1017.22 1017.39 1017.59 1017.81 1018.05 1018.27 1018.47 1018.63 1018.77 1018.88 1018.98 1019.09 1019.19 1019.28 1019.34 1019.35 1019.29 1019.18 1019.04 1018.88 1018.75 1018.68 1018.70 1018.80 1018.98 1019.18 1019.40 1019.59 1019.75 1019.88 1019.98 1020.09 1020.22
1014.51 1014.77 1015.10 1015.49 1015.88 1016.25 1016.56 1016.82 1017.03 1017.21 1017.38 1017.56 1017.77 1017.99 1018.21 1018.42 1018.60 1018.76 1018.89 1019.01 1019.12 1019.23 1019.34 1019.42 1019.47 1019.46 1019.39 1019.27 1019.12 1018.98 1018.88 1018.85 1018.91 1019.06 1019.28 1019.52 1019.76 1019.96 1020.12 1020.24 1020.34 1020.44 1020.56
1014.52 1014.81 1015.17 1015.56 1015.94 1016.30 1016.61 1016.86 1017.08 1017.27 1017.46 1017.65 1017.87 1018.09 1018.31 1018.51 1018.69 1018.83 1018.96 1019.07 1019.18 1019.28 1019.37 1019.44 1019.47 1019.45 1019.37 1019.25 1019.12 1019.01 1018.95 1018.97 1019.09 1019.29 1019.55 1019.83 1020.09 1020.31 1020.47 1020.59 1020.67 1020.75 1020.85
1014.48 1014.82 1015.19 1015.57 1015.94 1016.27 1016.56 1016.80 1017.01 1017.21 1017.41 1017.63 1017.85 1018.09 1018.31 1018.52 1018.69 1018.84 1018.96 1019.07 1019.16 1019.25 1019.32 1019.37 1019.38 1019.35 1019.28 1019.17 1019.07 1019.01 1019.01 1019.09 1019.26 1019.51 1019.80 1020.11 1020.39 1020.61 1020.78 1020.90 1020.97 1021.04 1021.12
1014.40 1014.77 1015.15 1015.52 1015.86 1016.16 1016.41 1016.63 1016.83 1017.02 1017.23 1017.46 1017.71 1017.96 1018.21 1018.43 1018.62 1018.78 1018.91 1019.02 1019.11 1019.19 1019.24 1019.28 1019.28 1019.25 1019.19 1019.12 1019.07 1019.05 1019.10 1019.24 1019.45 1019.73 1020.05 1020.36 1020.65 1020.88 1021.05 1021.16 1021.24 1021.29 1021.35
1014.26 1014.66 1015.04 1015.39 1015.70 1015.96 1016.17 1016.36 1016.54 1016.73 1016.94 1017.18 1017.45 1017.72 1018.00 1018.25 1018.47 1018.66 1018.81 1018.94 1019.04 1019.12 1019.19 1019.22 1019.23 1019.22 1019.19 1019.16 1019.16 1019.20 1019.30 1019.47 1019.70 1019.99 1020.30 1020.60 1020.88 1021.10 1021.26 1021.38 1021.46 1021.51 1021.57
1014.02 1014.44 1014.82 1015.15 1015.43 1015.66 1015.85 1016.01 1016.18 1016.37 1016.58 1016.84 1017.12 1017.41 1017.71 1018.00 1018.26 1018.49 1018.68 1018.85 1018.98 1019.09 1019.17 1019.24 1019.28 1019.30 1019.32 1019.34 1019.39 1019.47 1019.61 1019.79 1020.02 1020.28 1020.56 1020.82 1021.06 1021.26 1021.41 1021.53 1021.63 1021.70 1021.76
1013.64 1014.08 1014.47 1014.79 1015.06 1015.28 1015.47 1015.64 1015.81 1016.00 1016.23 1016.48 1016.77 1017.08 1017.40 1017.71 1018.01 1018.28 1018.53 1018.74 1018.92 1019.07 1019.20 1019.30 1019.39 1019.47 1019.54 1019.62 1019.72 1019.84 1020.00 1020.17 1020.37 1020.59 1020.80 1021.00 1021.18 1021.35 1021.49 1021.62 1021.73 1021.84 1021.93
1013.12 1013.57 1013.96 1014.30 1014.60 1014.85 1015.07 1015.27 1015.48 1015.69 1015.93 1016.19 1016.47 1016.78 1017.09 1017.42 1017.74 1018.04 1018.33 1018.59 1018.82 1019.03 1019.21 1019.37 1019.51 1019.65 1019.79 1019.93 1020.08 1020.23 1020.39 1020.55 1020.70 1020.85 1020.98 1021.11 1021.23 1021.35 1021.48 1021.62 1021.77 1021.92 1022.04
1012.46 1012.90 1013.32 1013.70 1014.04 1014.36 1014.66 1014.94 1015.20 1015.46 1015.72 1015.98 1016.24 1016.52 1016.82 1017.13 1017.44 1017.76 1018.07 1018.36 1018.64 1018.90 1019.13 1019.35 1019.56 1019.75 1019.95 1020.15 1020.34 1020.53 1020.69 1020.83 1020.94 1021.01 1021.07 1021.12 1021.17 1021.26 1021.38 1021.53 1021.72 1021.92 1022.09
1011.67 1012.12 1012.55 1012.99 1013.41 1013.83 1014.24 1014.62 1014.98 1015.30 1015.58 1015.84 1016.08 1016.32 1016.57 1016.84 1017.12 1017.42 1017.73 1018.04 1018.34 1018.63 1018.91 1019.17 1019.42 1019.68 1019.93 1020.18 1020.42 1020.63 1020.81 1020.93 1021.00 1021.03 1021.02 1021.01 1021.01 1021.06 1021.18 1021.35 1021.57 1021.82 1022.06
1010.83 1011.26 1011.72 1012.21 1012.72 1013.26 1013.80 1014.30 1014.76 1015.16 1015.48 1015.74 1015.95 1016.13 1016.32 1016.52 1016.75 1017.00 1017.29 1017.59 1017.90 1018.20 1018.50 1018.79 1019.07 1019.37 1019.66 1019.96 1020.23 1020.48 1020.68 1020.80 1020.87 1020.86 1020.82 1020.77 1020.74 1020.78 1020.88 1021.08 1021.34 1021.63 1021.92
1010.00 1010.40 1010.87 1011.40 1012.00 1012.65 1013.30 1013.93 1014.49 1014.96 1015.32 1015.58 1015.76 1015.89 1016.01 1016.14 1016.31 1016.52 1016.76 1017.04 1017.33 1017.63 1017.92 1018.21 1018.51 1018.82 1019.14 1019.46 1019.77 1020.06 1020.28 1020.44 1020.52 1020.52 1020.48 1020.42 1020.39 1020.41 1020.53 1020.73 1021.02 1021.35 1021.67
1009.26 1009.61 1010.07 1010.62 1011.28 1012.00 1012.75 1013.47 1014.12 1014.64 1015.03 1015.29 1015.45 1015.54 1015.61 1015.68 1015.80 1015.96 1016.18 1016.42 1016.69 1016.96 1017.24 1017.51 1017.80 1018.10 1018.42 1018.76 1019.09 1019.41 1019.68 1019.88 1020.00 1020.04 1020.03 1019.99 1019.98 1020.01 1020.14 1020.35 1020.65 1020.99 1021.34
1008.66 1008.97 1009.38 1009.92 1010.59 1011.34 1012.13 1012.90 1013.58 1014.14 1014.55 1014.81 1014.96 1015.03 1015.07 1015.12 1015.22 1015.36 1015.56 1015.80 1016.05 1016.30 1016.55 1016.80 1017.05 1017.32 1017.62 1017.95 1018.30 1018.64 1018.95 1019.21 1019.39 1019.49 1019.54 1019.55 1019.56 1019.62 1019.75 1019.96 1020.26 1020.60 1020.96
1008.26 1008.51 1008.86 1009.36 1009.98 1010.70 1011.47 1012.22 1012.90 1013.45 1013.86 1014.11 1014.26 1014.33 1014.39 1014.46 1014.57 1014.75 1014.97 1015.22 1015.48 1015.72 1015.95 1016.16 1016.38 1016.61 1016.87 1017.18 1017.52 1017.87 1018.22 1018.53 1018.78 1018.96 1019.07 1019.13 1019.19 1019.27 1019.41 1019.61 1019.89 1020.21 1020.55
1008.07 1008.26 1008.55 1008.96 1009.49 1010.12 1010.81 1011.49 1012.10 1012.61 1012.98 1013.23 1013.38 1013.48 1013.58 1013.71 1013.89 1014.13 1014.42 1014.72 1015.02 1015.28 1015.50 1015.69 1015.87 1016.05 1016.27 1016.54 1016.86 1017.21 1017.58 1017.94 1018.24 1018.49 1018.67 1018.80 1018.91 1019.01 1019.15 1019.33 1019.57 1019.86 1020.17
Thickness
5738 5738 5737 5737 5737 5737 5737 5737 5736 5736 5735 5734 5733 5732 5731 5731 5730 5730 5729 5729 5729 5728 5728 5727 5726 5726 5725 5724 5723 5723 5723 5722 5721 5721 5721 5720 5720 5720 5719 5719 5718 5718 5717
5738 5736 5735 5734 5734 5734 5734 5734 5733 5733 5732 5731 5730 5729 5729 5728 5727 5727 5726 5726 5726 5725 5725 5724 5723 5722 5722 5721 5720 5720 5719 5718 5718 5718 5717 5717 5717 5716 5716 5715 5715 5714 5713
5735 5733 5732 5731 5731 5731 5731 5731 5730 5730 5729 5728 5727 5727 5726 5725 5725 5724 5723 5722 5722 5722 5721 5720 5720 5719 5718 5717 5717 5716 5716 5716 5715 5715 5714 5714 5713 5713 5712 5712 5711 5710 5710
5732 5730 5728 5728 5728 5728 5728 5727 5727 5726 5726 5725 5724 5723 5723 5722 5721 5720 5720 5719 5718 5718 5717 5716 5715 5715 5714 5714 5713 5713 5713 5713 5713 5713 5712 5711 5710 5709 5709 5708 5708 5707 5706
5727 5726 5724 5724 5724 5724 5724 5724 5723 5723 5722 5721 5721 5720 5719 5719 5718 5717 5716 5715 5715 5714 5713 5712 5712 5711 5710 5710 5710 5710 5710 5710 5710 5709 5709 5708 5707 5706 5706 5705 5704 5703 5703
5721 5720 5719 5719 5719 5720 5720 5720 5719 5719 5718 5717 5717 5716 5716 5715 5714 5713 5712 5712 5711 5710 5709 5709 5708 5707 5706 5706 5706 5706 5706 5706 5706 5706 5705 5704 5703 5703 5702 5701 5700 5699 5699
5715 5715 5714 5714 5715 5715 5716 5716 5715 5714 5714 5713 5713 5712 5711 5711 5710 5709 5708 5708 5707 5706 5705 5704 5704 5703 5702 5702 5702 5702 5702 5702 5702 5702 5701 5701 5700 5699 5698 5697 5696 5695 5694
5709 5710 5709 5709 5710 5710 5711 5711 5711 5710 5709 5709 5708 5707 5707 5706 5706 5705 5704 5704 5703 5702 5701 5700 5699 5699 5698 5698 5698 5698 5698 5698 5698 5698 5697 5697 5696 5695 5694 5693 5692 5691 5690
5704 5704 5703 5704 5704 5705 5706 5706 5706 5705 5705 5704 5704 5703 5702 5702 5701 5701 5700 5699 5698 5697 5696 5696 5695 5694 5693 5693 5693 5693 5694 5694 5694 5693 5693 5692 5691 5691 5690 5689 5688 5687 5686
5696 5697 5698 5698 5699 5699 5700 5700 5700 5701 5700 5699 5698 5699 5698 5697 5696 5696 5695 5694 5693 5692 5691 5691 5690 5689 5689 5688 5688 5688 5689 5689 5689 5688 5688 5687 5686 5686 5685 5684 5684 5683 5682
5687 5689 5691 5692 5693 5694 5695 5695 5695 5695 5695 5694 5693 5693 5693 5692 5691 5691 5690 5689 5688 5687 5686 5686 5685 5684 5684 5683 5683 5683 5683 5684 5683 5683 5682 5682 5681 5681 5680 5679 5679 5678 5678
5677 5680 5684 5686 5687 5688 5689 5689 5689 5690 5689 5688 5688 5688 5688 5687 5687 5686 5685 5684 5683 5682 5681 5680 5680 5679 5678 5678 5677 5677 5678 5678 5678 5677 5677 5677 5676 5676 5675 5674 5674 5673 5673
5669 5672 5675 5678 5680 5682 5683 5683 5683 5684 5683 5683 5683 5682 5682 5681 5681 5680 5679 5677 5677 5676 5675 5674 5673 5673 5672 5672 5671 5671 5672 5672 5672 5671 5671 5671 5671 5670 5670 5669 5669 5668 5668
5661 5664 5668 5671 5673 5674 5675 5676 5677 5677 5677 5677 5676 5676 5676 5675 5674 5673 5672 5671 5670 5669 5668 5668 5667 5666 5666 5665 5665 5666 5666 5666 5666 5665 5665 5665 5664 5664 5664 5664 5663 5663 5662
5653 5657 5660 5663 5665 5667 5668 5669 5669 5670 5670 5670 5670 5670 5670 5669 5668 5667 5666 5664 5664 5663 5662 5661 5661 5660 5659 5659 5659 5660 5660 5661 5660 5660 5659 5658 5658 5658 5658 5658 5658 5657 5657
5646 5649 5652 5655 5657 5659 5660 5661 5661 5662 5662 5663 5662 5662 5662 5661 5661 5660 5659 5658 5657 5657 5656 5654 5653 5652 5652 5652 5653 5654 5654 5654 5654 5654 5653 5652 5652 5651 5652 5652 5652 5651 5651
5638 5641 5644 5647 5649 5651 5652 5653 5653 5654 5654 5654 5654 5653 5653 5653 5653 5652 5651 5650 5650 5649 5648 5647 5646 5645 5645 5645 5645 5646 5647 5647 5648 5647 5646 5646 5645 5644 5644 5644 5645 5644 5644
5631 5633 5635 5638 5640 5642 5644 5645 5645 5645 5646 5645 5645 5645 5644 5644 5644 5643 5642 5641 5641 5640 5639 5638 5637 5636 5635 5635 5635 5637 5638 5640 5640 5641 5640 5639 5639 5638 5637 5637 5637 5637 5636
5624 5626 5627 5629 5631 5633 5635 5637 5637 5636 5637 5636 5636 5635 5634 5634 5634 5634 5633 5631 5631 5631 5630 5629 5628 5627 5626 5626 5627 5628 5630 5631 5633 5633 5633 5632 5632 5631 5630 5629 5629 5629 5628
5616 5618 5619 5621 5623 5625 5626 5628 5628 5627 5627 5627 5627 5625 5625 5625 5625 5624 5623 5622 5621 5620 5619 5619 5618 5618 5617 5617 5619 5620 5622 5624 5625 5625 5625 5625 5624 5624 5623 5622 5621 5620 5619
5606 5608 5610 5611 5613 5615 5615 5617 5618 5617 5617 5617 5617 5617 5617 5616 5616 5615 5613 5612 5611 5610 5609 5609 5608 5608 5608 5608 5608 5609 5613 5616 5617 5617 5617 5616 5616 5615 5614 5614 5613 5613 5612
5596 5597 5600 5602 5604 5605 5606 5608 5609 5609 5609 5609 5608 5608 5608 5607 5606 5605 5604 5603 5602 5601 5600 5599 5598 5598 5598 5598 5597 5597 5599 5603 5606 5609 5608 5607 5607 5606 5606 5605 5604 5605 5604
5587 5588 5592 5593 5595 5596 5597 5598 5599 5599 5599 5599 5598 5598 5598 5598 5597 5597 5596 5594 5594 5592 5590 5589 5589 5589 5588 5589 5590 5588 5587 5589 5593 5597 5599 5599 5598 5597 5597 5596 5596 5596 5596
5577 5579 5582 5583 5585 5586 5587 5588 5589 5589 5588 5589 5590 5589 5589 5589 5589 5588 5587 5586 5585 5584 5582 5580 5580 5580 5580 5580 5581 5581 5581 5581 5580 5581 5586 5588 5588 5588 5588 5588 5588 5587 5587
5569 5570 5572 5573 5575 5577 5578 5579 5579 5579 5579 5579 5580 5580 5580 5580 5580 5579 5578 5578 5577 5575 5574 5572 5572 5571 5572 5571 5571 5571 5572 5572 5573 5570 5571 5575 5577 5579 5579 5578 5578 5579 5578
5560 5560 5561 5563 5564 5566 5567 5569 5569 5569 5569 5569 5569 5569 5570 5570 5570 5569 5569 5568 5568 5567 5566 5565 5563 5563 5562 5562 5562 5561 5561 5561 5561 5561 5561 5562 5564 5568 5569 5569 5569 5569 5569